User: anonymous
Location: Fishcreek Rd Observing Site
(41.1865°N, 81.4271°W)
Time: 19:26:36
(UTC-04:00)
Language:

Iridium 45 - Orbit

View from above orbital plane
View from above orbital plane
View from above satellite
View from above satellite

Ground track
Ground track

The orbit data is extracted from the following two-line orbital elements,

1 25104U 97082A   14203.31314122  .00000116  00000-0  34413-4 0  8249
2 25104 087.0291 346.6360 0002477 123.2554 300.5146 14.34228297868318
Epoch (UTC): 22 July 2014 07:30:55
Eccentricity: 0.0002477
inclination: 87.0291°
perigee height: 776 km
apogee height: 779 km
right ascension of ascending node: 346.6360°
argument of perigee: 123.2554°
revolutions per day: 14.34228297
mean anomaly at epoch: 300.5146°
orbit number at epoch: 86831

The dashed part of the orbit path shows where the satellite is in the earth's shadow,  

DLR